sat.trackr.live / text

‹ back to catalog

USA 153

NORAD 26575 · 2000-065A

PAYLOAD ACTIVE UNKNOWN

§ Identity

Operator
Country
US
Launch date
2000-10-20
Launch site
AFETR
Launch vehicle
Mass (kg)
RCS (m²)

Purposes: comms

External: N2YO · Heavens-Above · Gunter

§ Orbital elements

Epoch: 2026-09-09T18:28:38.808768Z

Period
1,436.12 min
Inclination
11.7690°
Eccentricity
0.0001662
Mean motion
1.00270368 rev/d
Perigee alt
35,780.0 km
Apogee alt
35,794.0 km
Semi-major
42,165.1 km
B*
0.0000e+0
RAAN
34.6966°
Arg perigee
134.1354°
Mean anomaly
231.6293°
Rev number
3,378

§ Raw data

USA 1531 26575U 00065A   26252.76989362 -.00000339  00000+0  00000+0 0  99972 26575  11.7690  34.6966 0001662 134.1354 231.6293  1.00270368 33785

JSON: /api/v1/satellites/26575 · /tle

For live sub-satellite position, see the globe view (requires WebGL).

§ Visibility from observer

Set your observer location to see the next 7 days of passes ≥ 10°. The values pass through the URL so the page stays shareable.

No JS? Fill the form by hand. The geolocation button needs JavaScript.